Vertical_Velocity
2 -2 5 -3 -0 2 -0 0 -1 -2 0 -2 -1 -0 3 -2 1 1 0 -1 -2 -1 0 -0 -1 -1 -2 -2 -3 -3 -3 -2 -3 -5 -3 -4 -3 -3 -2 -1 0 -0 -1 -1
0 0 1 -0 -1 1 -0 -1 3 -3 -1 -2 0 0 -1 1 -0 0 -0 -2 -1 -0 -0 0 -1 -1 -1 -3 -4 -3 -1 -2 -1 -3 -3 -3 -3 -4 -4 -2 -1 -1 -0 -1
1 -1 -0 -1 -0 1 -2 -2 -2 -1 -2 -2 -4 -3 -3 -1 0 -0 -1 -2 0 1 1 1 0 -1 -2 -2 -2 -1 -1 -1 -2 -2 -2 -3 -3 -2 -2 -1 1 -0 -0 -2
-1 -1 -0 2 -0 -0 2 -0 -1 -0 -0 7 -1 0 -2 -4 0 -1 -2 -0 1 2 2 1 -1 -2 -1 -1 -2 -2 -1 0 -1 -2 -3 -3 -2 -1 -1 0 1 2 1 0
-0 0 1 1 -1 1 -3 -1 -2 -1 -1 -1 1 1 8 -1 -2 -1 -1 1 3 3 1 0 0 -1 -0 -1 -2 -1 0 -1 -2 -2 -3 -3 -2 -2 -2 -2 0 1 4 4
1 0 -0 -0 -0 -0 -1 -2 -2 -1 -1 2 5 -0 6 -1 -1 1 1 3 3 3 2 2 1 1 2 0 -1 -0 -1 -2 -3 -3 -3 -3 -2 -1 -1 -2 -4 -4 -2 2
0 -0 1 1 0 0 -1 -2 1 2 2 2 -1 1 0 -2 3 4 1 1 2 1 0 -1 0 0 -0 -1 -2 -2 -1 -2 -2 -1 -1 -1 -3 -2 -0 -1 0 -0 1 -1
1 2 -0 -1 -1 -1 -2 -2 1 0 2 3 -5 -4 5 -1 0 0 1 2 2 0 -0 -1 -1 -1 -0 -0 0 -0 -1 -3 -5 -6 -7 -5 -2 -0 1 1 -0 -0 -2 -1
0 -1 -2 -2 -2 -1 -3 -1 -2 -2 -3 4 -4 -3 -11 -5 -1 -0 -0 -3 -5 -5 -3 -1 0 -1 -3 -4 -4 -2 -2 -3 -3 -3 -4 -4 -2 -2 -2 -1 -1 -1 -1 -3
-1 2 0 2 2 2 2 1 0 0 1 -0 -0 -2 3 2 1 2 2 3 4 1 -1 -0 1 2 0 -2 -2 -3 -2 -1 0 1 3 5 4 1 -3 -5 -4 -4 -3 -2
0 1 -4 0 -3 1 -2 -2 -2 -3 -3 3 0 0 -3 -6 -3 -4 -1 -4 -3 1 1 1 -4 -5 -5 -3 -3 -3 -0 2 2 0 -2 -2 0 1 1 -0 -3 -2 -5 -5
-5 -2 -1 5 -3 3 8 3 3 4 3 0 0 -11 -5 4 2 4 8 6 2 4 4 -0 1 3 -1 -2 -1 -2 -0 1 -0 -1 0 -1 -0 -0 1 -1 -2 -6 -3 -0
3 -1 -3 5 1 0 0 -0 2 -1 4 -10 11 -3 -0 -6 -3 -12 -6 0 -2 2 -1 1 -0 -5 -2 -0 -1 -2 -3 -3 -2 -2 -3 -2 -1 -2 -1 -2 -3 -2 -3 -3
-3 -4 -2 -5 17 -2 -5 -1 1 5 2 -11 -10 -11 8 15 34 11 3 -4 -6 -5 -3 -1 2 2 1 -1 -4 -3 1 -2 -3 -1 -2 -2 -3 -3 -1 -0 -2 1 -5 -4
5 -5 4 -2 -3 0 1 -1 6 -0 -4 5 -0 -2 5 13 -7 -5 -3 -1 1 1 -1 -2 -2 -1 -0 -0 2 -2 -5 -1 1 -1 3 3 1 -1 1 -2 -2 -3 1 -6
3 -4 -5 -9 -4 -3 -1 -3 -4 -3 0 2 10 -10 18 -6 -4 -0 -2 -3 -1 -2 -5 -1 -1 0 4 6 -1 5 4 3 2 -4 -4 -1 -4 -4 -6 -5 -3 -6 -1 -2
2 1 1 -6 2 -0 -7 -4 -0 1 4 2 2 5 -0 0 -0 0 -4 0 0 -3 -2 -0 0 1 2 4 7 3 2 -0 2 -5 -1 -3 -2 -5 -3 -2 -1 2 -4 -0
4 2 4 -3 -2 4 2 -1 -2 -1 -1 -2 1 -2 -1 -2 0 1 -2 -3 -5 -3 2 3 2 -3 2 1 5 -3 5 5 1 -5 -4 -1 1 -3 1 -0 -2 0 -0 0
6 8 2 -3 3 -12 -2 6 -0 2 3 -2 -1 -2 -1 -4 -8 12 4 -2 -2 -3 -9 -12 -8 -9 -11 -8 -6 -3 -6 -3 1 -1 -0 2 -2 -5 -0 0 2 1 0 0
-1 1 4 6 3 1 0 -3 -1 1 -6 -4 -1 -1 -3 -2 -10 12 -11 -2 -7 -2 -1 -3 2 -1 1 -2 3 1 1 2 2 -2 2 -1 2 1 1 4 1 0 1 -6
-0 3 -5 1 -0 -2 -0 2 -3 -2 4 -2 -1 -0 -4 -2 0 -6 12 -1 -5 -3 -3 -0 -6 -9 -9 -5 -0 -3 3 -1 4 1 1 -0 2 1 0 -1 1 0 -1 -1
1 0 -4 3 7 0 0 1 -5 -6 7 -1 -1 -3 -2 3 0 -4 -0 4 2 -6 -6 -2 -4 -2 -1 1 3 -7 -9 4 -1 -3 -11 -7 -5 1 -2 1 -5 4 1 -3
-3 -6 -3 -9 13 -0 1 5 4 -4 -7 1 -8 2 -3 -9 -6 -5 -11 -7 -7 -4 -4 -0 2 -2 3 2 6 -1 -8 -10 -1 -3 1 2 -3 -5 3 0 -7 -6 7 4
-3 -2 -3 4 -1 -0 -2 -0 0 -2 -3 2 4 -2 3 -4 -0 -3 -3 -1 -0 2 -3 -2 1 -3 -8 -3 3 6 7 12 3 -5 -7 -8 -0 -4 -1 3 1 -3 -4 -2
-7 -1 -0 0 -8 -3 -6 -4 -7 -8 -8 -8 -5 -4 -3 1 -9 -0 -12 -6 -5 -7 -8 -1 -4 -6 -9 -2 -6 -3 0 8 6 5 0 -3 -3 -2 -2 -0 -2 -0 -0 5
-3 3 1 -6 1 -5 -0 -1 -1 -8 -7 -3 -4 -10 -5 -0 -8 -1 -2 -2 -0 1 -2 -3 -2 4 -3 1 -1 -7 3 11 3 -4 -8 1 3 4 4 0 -9 5 3 0
Height
3129 3131 3133 3130 3132 3132 3132 3133 3133 3132 3130 3129 3128 3127 3125 3121 3120 3118 3117 3118 3119 3120 3121 3121 3120 3120 3119 3118 3116 3114 3111 3109 3107 3105 3103 3101 3100 3098 3096 3094 3092 3090 3089 3088
3129 3129 3128 3128 3129 3130 3130 3131 3132 3130 3128 3126 3124 3122 3120 3117 3116 3115 3114 3115 3117 3118 3118 3118 3118 3117 3116 3114 3113 3112 3109 3107 3105 3103 3101 3099 3097 3095 3093 3091 3089 3088 3086 3085
3126 3127 3127 3127 3128 3128 3128 3129 3129 3128 3125 3122 3120 3116 3113 3113 3113 3112 3113 3114 3115 3116 3116 3115 3115 3114 3113 3112 3110 3109 3107 3105 3103 3101 3099 3097 3095 3092 3090 3088 3087 3085 3082 3081
3125 3125 3126 3126 3126 3127 3127 3126 3126 3125 3123 3124 3120 3117 3111 3109 3110 3110 3111 3112 3113 3113 3113 3113 3113 3112 3111 3109 3108 3106 3104 3102 3100 3098 3096 3094 3091 3089 3087 3085 3083 3081 3079 3077
3124 3124 3124 3124 3124 3124 3125 3124 3124 3122 3120 3120 3118 3119 3110 3108 3107 3107 3108 3109 3110 3111 3110 3110 3110 3108 3107 3106 3105 3104 3102 3099 3097 3094 3092 3090 3087 3085 3082 3081 3079 3077 3075 3073
3123 3122 3123 3122 3122 3123 3123 3123 3121 3118 3119 3119 3114 3116 3107 3105 3105 3106 3105 3106 3107 3107 3107 3106 3106 3105 3104 3103 3102 3100 3099 3096 3093 3090 3088 3085 3083 3081 3079 3077 3075 3073 3071 3070
3121 3120 3120 3121 3121 3122 3122 3123 3121 3119 3120 3114 3112 3113 3108 3103 3104 3105 3103 3103 3104 3104 3103 3103 3102 3102 3100 3099 3098 3096 3093 3091 3088 3086 3083 3080 3079 3077 3076 3074 3072 3070 3068 3067
3119 3120 3118 3119 3120 3121 3121 3123 3124 3122 3113 3113 3112 3108 3104 3101 3102 3102 3101 3101 3101 3101 3101 3100 3099 3097 3096 3095 3093 3090 3087 3085 3082 3080 3078 3076 3075 3073 3071 3069 3067 3066 3064 3062
3118 3118 3116 3117 3118 3121 3119 3121 3122 3122 3118 3116 3106 3104 3101 3099 3098 3097 3097 3097 3097 3098 3097 3096 3094 3093 3091 3089 3087 3084 3082 3079 3076 3074 3072 3070 3069 3068 3066 3064 3062 3060 3058 3056
3115 3117 3114 3114 3115 3116 3117 3118 3119 3119 3117 3107 3097 3099 3097 3096 3096 3095 3095 3094 3093 3092 3091 3091 3090 3088 3085 3082 3080 3077 3075 3072 3070 3067 3065 3063 3061 3059 3058 3056 3054 3053 3050 3048
3113 3114 3113 3112 3112 3113 3114 3114 3115 3116 3114 3107 3101 3096 3095 3095 3094 3092 3091 3090 3088 3088 3087 3086 3083 3080 3077 3075 3072 3069 3066 3063 3060 3058 3057 3056 3054 3052 3050 3048 3046 3044 3042 3040
3110 3111 3111 3112 3109 3109 3109 3109 3110 3110 3107 3106 3103 3093 3093 3090 3089 3088 3089 3086 3085 3084 3082 3080 3077 3073 3068 3065 3062 3060 3058 3055 3052 3051 3049 3048 3046 3044 3042 3039 3037 3035 3032 3030
3104 3105 3107 3106 3106 3103 3102 3102 3104 3104 3103 3100 3099 3091 3087 3087 3087 3082 3083 3080 3078 3076 3073 3071 3068 3064 3062 3059 3056 3053 3050 3048 3045 3042 3040 3039 3037 3034 3032 3030 3027 3024 3021 3019
3103 3103 3102 3100 3101 3100 3099 3099 3099 3100 3097 3091 3087 3083 3087 3086 3084 3077 3072 3070 3070 3068 3065 3064 3061 3057 3054 3051 3048 3046 3043 3040 3037 3034 3032 3029 3027 3024 3022 3019 3016 3013 3010 3007
3097 3095 3096 3095 3095 3095 3093 3093 3094 3090 3088 3087 3076 3079 3083 3079 3072 3071 3067 3065 3063 3060 3057 3054 3052 3049 3047 3044 3041 3037 3034 3032 3028 3024 3023 3019 3015 3011 3009 3007 3004 3001 2998 2995
3091 3088 3088 3084 3086 3085 3080 3081 3080 3078 3077 3074 3073 3071 3072 3066 3064 3063 3060 3059 3057 3054 3050 3048 3044 3042 3040 3035 3032 3029 3024 3022 3018 3013 3011 3008 3004 3000 2996 2994 2990 2987 2985 2981
3087 3086 3085 3080 3079 3078 3071 3065 3065 3066 3067 3068 3067 3065 3061 3060 3058 3056 3054 3053 3048 3046 3043 3040 3037 3034 3031 3027 3024 3020 3014 3010 3005 3000 2998 2994 2989 2986 2982 2979 2976 2973 2970 2967
3081 3081 3082 3077 3077 3072 3061 3060 3061 3060 3060 3060 3059 3057 3056 3054 3052 3048 3049 3044 3040 3037 3035 3032 3027 3021 3018 3014 3010 3005 3001 2996 2991 2986 2982 2979 2975 2971 2969 2967 2964 2961 2958 2956
3073 3076 3077 3075 3070 3060 3060 3055 3057 3056 3056 3055 3055 3053 3051 3048 3046 3045 3045 3037 3032 3028 3024 3019 3014 3008 3002 2998 2995 2991 2986 2982 2979 2975 2972 2968 2964 2961 2959 2956 2954 2951 2949 2947
3065 3067 3072 3070 3068 3059 3052 3053 3053 3053 3053 3047 3049 3048 3045 3043 3037 3035 3031 3028 3022 3018 3012 3007 3002 2996 2991 2988 2983 2978 2974 2971 2967 2964 2960 2958 2956 2952 2950 2947 2944 2942 2940 2937
3060 3059 3059 3061 3060 3055 3047 3048 3049 3053 3052 3045 3043 3040 3037 3033 3029 3022 3016 3012 3008 3004 3000 2996 2991 2986 2982 2978 2974 2968 2964 2960 2958 2954 2952 2950 2947 2944 2940 2937 2935 2932 2930 2926
3054 3055 3054 3054 3053 3051 3044 3044 3048 3046 3044 3040 3036 3031 3027 3022 3017 3012 3008 3004 3000 2996 2993 2989 2984 2981 2976 2972 2967 2961 2957 2954 2950 2946 2942 2939 2936 2934 2930 2927 2925 2922 2918 2915
3049 3047 3048 3050 3046 3042 3040 3040 3038 3034 3032 3029 3025 3021 3016 3011 3007 3004 2999 2996 2991 2988 2984 2981 2977 2971 2967 2963 2958 2952 2948 2944 2940 2936 2933 2929 2926 2923 2920 2915 2912 2909 2907 2903
3039 3041 3039 3039 3039 3037 3035 3035 3032 3028 3025 3021 3017 3012 3008 3004 3000 2996 2992 2988 2984 2980 2975 2972 2967 2961 2956 2952 2947 2942 2938 2933 2929 2923 2919 2916 2912 2910 2907 2904 2900 2897 2894 2891
3035 3033 3033 3031 3031 3029 3028 3026 3023 3019 3016 3012 3008 3004 2999 2996 2991 2988 2983 2979 2975 2970 2966 2961 2955 2949 2943 2939 2934 2930 2925 2921 2916 2910 2906 2902 2899 2895 2892 2890 2887 2884 2881 2878
3028 3027 3025 3025 3025 3021 3020 3017 3014 3011 3007 3003 2997 2993 2990 2987 2982 2978 2973 2969 2965 2959 2953 2947 2941 2935 2930 2926 2921 2917 2913 2909 2903 2897 2893 2890 2886 2883 2880 2876 2872 2871 2867 2864